Weather History for Elizabeth City, NC

Change the Weather History Date:

Monday, October 31, 2011

  Actual Average Record
Temperature  
Mean Temperature 48 °F 58 °F  
Max Temperature 62 °F 69 °F 84 °F (1946)
Min Temperature 34 °F 47 °F 28 °F (1966)
Degree Days  
Heating Degree Days 17 8  
Month to date heating degree days 150 140  
Since 1 July heating degree days 153 151  
Cooling Degree Days 0 1  
Month to date cooling degree days 43 59  
Year to date cooling degree days 1960 1581  
Moisture  
Dew Point 45 °F    
Average Humidity 76    
Maximum Humidity 100    
Minimum Humidity 51    
Precipitation  
Precipitation 0.55 in 0.11 in 2.61 in (1939)
Month to date precipitation 2.08 3.07  
Year to date precipitation 31.77 40.96  
Snow  
Snow 0.00 in - 0.00 in (2002)
Month to date snowfall 0.0  
Since 1 July snowfall 0.0  
Snow Depth 0.00 in    
Sea Level Pressure  
Sea Level Pressure 30.24 in    
Wind  
Wind Speed 8 mph (North)    
Max Wind Speed 28 mph    
Max Gust Speed 32 mph    
Visibility 8 miles    
Events Rain    
T = Trace of Precipitation, MM = Missing Value Source: NWS Daily Summary

Daily Weather History Graph

Daily Weather History Graph

Search for Another Location

Airport:

Trip Planner

Search our weather history database for the weather conditions in past years. The results will help you decide how hot, cold, wet, or windy it might be!

Date:

Astronomy

Oct. 31, 2011 Rise Set
Actual Time 7:26 AM EDT 6:09 PM EDT
Civil Twilight 6:59 AM EDT 6:36 PM EDT
Nautical Twilight 6:29 AM EDT 7:06 PM EDT
Astronomical Twilight 5:59 AM EDT 7:36 PM EDT
Moon 12:27 PM EDT (10/31) 10:46 PM EDT (10/31)
Length of Visible Light 11h 36m
Length of Day
10h 43m
Waxing Crescent, 29% of the Moon is Illuminated
Oct 31
Waxing Crescent
Nov 2
First Quarter
Nov 10
Full
Nov 18
Last Quarter
Nov 25
New

Hourly Weather History & Observations

Time (EDT) Temp. Windchill Dew Point Humidity Pressure Visibility Wind Dir Wind Speed Gust Speed Precip Events Conditions
12:54 AM 41.0 °F 39.0 °F 33.1 °F 73% 30.38 in 10.0 mi WNW 3.5 mph - N/A   Clear
1:54 AM 39.0 °F - 33.1 °F 79% 30.37 in 10.0 mi Calm Calm - N/A   Clear
2:54 AM 36.0 °F 33.3 °F 32.0 °F 86% 30.37 in 10.0 mi NW 3.5 mph - N/A   Clear
3:54 AM 34.0 °F - 32.0 °F 92% 30.36 in 10.0 mi Calm Calm - N/A   Clear
4:54 AM 34.0 °F 31.0 °F 30.9 °F 89% 30.36 in 10.0 mi NW 3.5 mph - N/A   Clear
5:54 AM 39.0 °F 35.7 °F 33.1 °F 79% 30.36 in 10.0 mi NW 4.6 mph - N/A   Clear
6:54 AM 42.1 °F 39.2 °F 35.1 °F 76% 30.35 in 10.0 mi NNW 4.6 mph - N/A   Clear
7:54 AM 44.1 °F 42.5 °F 36.0 °F 73% 30.36 in 10.0 mi North 3.5 mph - N/A   Clear
8:54 AM 46.9 °F - 39.0 °F 74% 30.36 in 10.0 mi NNE 6.9 mph - N/A   Clear
9:54 AM 51.1 °F - 42.1 °F 71% 30.34 in 10.0 mi NE 8.1 mph - N/A   Clear
10:54 AM 57.2 °F - 44.6 °F 63% 30.32 in 10.0 mi East 9.2 mph - N/A   Clear
11:54 AM 59.0 °F - 43.0 °F 55% 30.30 in 10.0 mi East 11.5 mph - N/A   Clear
12:54 PM 61.0 °F - 43.0 °F 52% 30.28 in 10.0 mi East 11.5 mph - N/A   Clear
1:54 PM 61.0 °F - 45.0 °F 56% 30.24 in 10.0 mi East 11.5 mph - N/A   Clear
2:54 PM 61.0 °F - 46.9 °F 60% 30.22 in 10.0 mi East 9.2 mph - N/A   Clear
3:54 PM 60.1 °F - 48.0 °F 64% 30.20 in 10.0 mi East 9.2 mph - N/A   Clear
4:54 PM 60.1 °F - 48.9 °F 67% 30.21 in 10.0 mi East 4.6 mph - N/A   Overcast
5:54 PM 60.1 °F - 50.0 °F 69% 30.17 in 10.0 mi East 6.9 mph - N/A   Scattered Clouds
6:54 PM 57.9 °F - 51.1 °F 78% 30.16 in 10.0 mi ENE 4.6 mph - N/A   Scattered Clouds
7:54 PM 57.9 °F - 52.0 °F 81% 30.15 in 10.0 mi ENE 5.8 mph - N/A   Overcast
8:54 PM 57.0 °F - 52.0 °F 83% 30.15 in 10.0 mi NW 5.8 mph - N/A   Overcast
9:54 PM 55.9 °F - 52.0 °F 87% 30.16 in 8.0 mi NNW 10.4 mph - 0.00 in Rain Light Rain
10:54 PM 54.0 °F - 51.1 °F 90% 30.15 in 4.0 mi WNW 12.7 mph - 0.05 in Rain Heavy Rain
10:57 PM 53.6 °F - 51.8 °F 94% 30.15 in 2.5 mi WNW 13.8 mph - 0.03 in Rain Heavy Rain
11:10 PM 53.6 °F - 51.8 °F 94% 30.16 in 2.0 mi NW 19.6 mph 25.3 mph 0.14 in Rain Rain
11:17 PM 53.6 °F - 51.8 °F 94% 30.15 in 1.8 mi NW 18.4 mph 28.8 mph 0.19 in Rain Rain
11:23 PM 53.6 °F - 51.8 °F 94% 30.15 in 3.0 mi NNW 18.4 mph 25.3 mph 0.21 in Rain Rain
11:30 PM 53.6 °F - 51.8 °F 94% 30.13 in 2.5 mi NNW 24.2 mph 31.1 mph 0.25 in Rain Heavy Rain
11:47 PM 51.8 °F - 51.8 °F 100% 30.12 in 3.0 mi NNW 23.0 mph 31.1 mph 0.29 in Rain Rain
11:54 PM 52.0 °F - 51.1 °F 97% 30.15 in 5.0 mi NW 20.7 mph 31.1 mph 0.30 in Rain Light Rain